Location: Montreal
(45.5087°N, 73.5540°W)
Time: 04:14:17
(UTC-05:00)

N. Korean satellite - Visible Passes

Search period start: 12 December 2018 00:00
Search period end: 22 December 2018 00:00
Orbit: 456 x 511 km, 97.2° (Epoch: 11 December)

Date Brightness Start Highest point End Pass type
(mag) Time Alt. Az. Time Alt. Az. Time Alt. Az.
12 Dec 10.1 05:05:58 10° ENE 05:07:02 11° E 05:08:08 10° ESE visible
12 Dec 6.7 06:37:19 10° N 06:40:47 52° WNW 06:44:17 10° SSW visible
12 Dec 6.3 17:15:04 10° SSE 17:18:28 77° ENE 17:21:55 10° N visible
13 Dec 6.7 06:12:41 10° NNE 06:16:15 75° ESE 06:19:51 10° S visible
13 Dec 7.0 16:50:48 10° SE 16:53:58 36° ENE 16:57:10 10° N visible
13 Dec 9.8 18:25:42 10° SW 18:27:36 14° W 18:29:30 10° WNW visible
14 Dec 8.3 05:48:18 10° NNE 05:51:38 36° E 05:55:00 10° SSE visible
14 Dec 8.7 17:59:53 10° SSW 18:02:51 27° W 18:05:50 10° NW visible
15 Dec 9.5 05:24:19 10° NE 05:26:56 19° E 05:29:35 10° SE visible
15 Dec 7.2 17:34:49 10° S 17:38:11 56° W 17:41:35 10° NNW visible
16 Dec 6.6 06:32:25 10° N 06:35:57 60° WNW 06:39:32 10° SSW visible
16 Dec 6.4 17:10:12 10° SSE 17:13:36 67° ENE 17:17:02 10° N visible
17 Dec 7.0 06:07:48 10° NNE 06:11:23 66° E 06:15:01 10° S visible
17 Dec 7.2 16:46:01 10° SE 16:49:06 32° ENE 16:52:13 10° N visible
17 Dec 9.7 18:20:29 10° SW 18:22:40 16° W 18:24:52 10° NW visible
18 Dec 8.5 05:43:28 10° NNE 05:46:45 32° E 05:50:03 10° SSE visible
18 Dec 8.5 17:54:51 10° SSW 17:57:55 31° W 18:01:02 10° NNW visible
19 Dec 9.7 05:19:34 10° NE 05:22:02 17° E 05:24:30 10° SE visible
19 Dec 7.2 06:52:16 10° N 06:55:34 34° WNW 06:58:54 10° SW visible
19 Dec 6.9 17:29:51 10° S 17:33:15 65° W 17:36:43 10° NNW visible
20 Dec 6.5 06:27:28 10° N 06:31:04 69° WNW 06:34:43 10° SSW visible
20 Dec 6.5 17:05:19 10° SSE 17:08:41 57° ENE 17:12:06 10° N visible
21 Dec 7.3 06:02:53 10° NNE 06:06:29 57° E 06:10:07 10° S visible
21 Dec 9.5 18:15:15 10° SW 18:17:41 18° W 18:20:09 10° NW visible
